Terminal Aerodrome Forecast
Issued by NWS Huntsville, AL

Home | Current Version | Previous Version | Text Only | Print | Product List | Glossary On
Versions: 1 2 3 4 5 6 7 8 9 10 11 12 13 14 15 16 17 18 19 20 21 22 23 24 25 26 27 28 29 30 31 32 33 34
000
FTUS44 KHUN 270524
TAFMSL
TAF
KMSL 270524Z 2706/2806 14005KT P6SM VCSH BKN080 OVC200
     FM271700 16006KT 5SM -SHRA OVC040
     FM280000 18008KT 4SM SHRA BKN025 OVC150=

USA.gov is the U.S. government's official web portal to all federal, state and local government web resources and services.